Weather History for Lille, France

Change the Weather History Date:

Saturday, October 15, 2011

  Actual Average Record
Temperature  
Mean Temperature 48 °F -  
Max Temperature 58 °F 53 °F 69 °F (2001)
Min Temperature 37 °F 42 °F 37 °F (2003)
Degree Days  
Heating Degree Days 18    
Moisture  
Dew Point 37 °F    
Average Humidity 69    
Maximum Humidity 93    
Minimum Humidity 39    
Precipitation  
Precipitation 0.00 in - - ()
Sea Level Pressure  
Sea Level Pressure 30.31 in    
Wind  
Wind Speed 5 mph ()    
Max Wind Speed 9 mph    
Max Gust Speed -    
Visibility 10.9 miles    
Events      
Averages and records for this station are not official NWS values.
T = Trace of Precipitation, MM = Missing Value Source: Averaged Metar Reports

Daily Weather History Graph

Daily Weather History Graph

Search for Another Location

Airport:

Trip Planner

Search our weather history database for the weather conditions in past years. The results will help you decide how hot, cold, wet, or windy it might be!

Date:

Astronomy

Oct. 15, 2011 Rise Set
Actual Time 8:09 AM CEST 6:56 PM CEST
Civil Twilight 7:36 AM CEST 7:29 PM CEST
Nautical Twilight 6:58 AM CEST 8:07 PM CEST
Astronomical Twilight 6:20 AM CEST 8:45 PM CEST
Moon 8:15 PM CEST (10/15) 11:45 AM CEST (10/15)
Length of Visible Light 11h 53m
Length of Day
10h 47m
Waning Gibbous, 90% of the Moon is Illuminated
Oct 15
Waning Gibbous
Oct 20
Last Quarter
Oct 26
New
Nov 2
First Quarter
Nov 10
Full

Hourly Weather History & Observations

Time (CEST) Temp. Windchill Dew Point Humidity Pressure Visibility Wind Dir Wind Speed Gust Speed Precip Events Conditions
12:00 AM 46.4 °F 43.5 °F 39.2 °F 76% 30.39 in - ENE 5.8 mph - N/A   Clear
1:00 AM 44.6 °F 40.2 °F 37.4 °F 76% 30.39 in - East 8.1 mph - N/A   Clear
2:00 AM 44 °F - 37 °F 69% 30.40 in 19 mi East 6.9 mph - -  
2:00 AM 44.6 °F 40.7 °F 37.4 °F 76% 30.39 in - East 6.9 mph - N/A   Clear
2:30 AM 42.8 °F 38.6 °F 37.4 °F 81% 30.36 in 6.2 mi East 6.9 mph - N/A   Unknown
3:00 AM 42.8 °F 38.6 °F 37.4 °F 81% 30.36 in 6.2 mi East 6.9 mph - N/A   Unknown
3:30 AM 42.8 °F 39.3 °F 35.6 °F 76% 30.36 in 6.2 mi East 5.8 mph - N/A   Unknown
4:00 AM 42.8 °F 39.3 °F 35.6 °F 76% 30.36 in 6.2 mi East 5.8 mph - N/A   Unknown
4:30 AM 41.0 °F 36.4 °F 35.6 °F 81% 30.36 in 6.2 mi East 6.9 mph - N/A   Unknown
5:00 AM 41.0 °F 36.4 °F 35.6 °F 81% 30.36 in - ENE 6.9 mph - N/A   Clear
5:30 AM 41.0 °F 37.1 °F 35.6 °F 81% 30.36 in - ENE 5.8 mph - N/A   Clear
6:00 AM 41.0 °F 36.4 °F 35.6 °F 81% 30.36 in - ENE 6.9 mph - N/A   Clear
6:30 AM 39.2 °F 35.0 °F 33.8 °F 81% 30.33 in - ENE 5.8 mph - N/A   Clear
7:00 AM 39.2 °F 37.0 °F 33.8 °F 81% 30.33 in - ENE 3.5 mph - N/A   Clear
7:30 AM 37.4 °F 34.9 °F 33.8 °F 87% 30.33 in - ENE 3.5 mph - N/A   Clear
8:00 AM 38 °F - 34 °F 79% 30.36 in 16 mi ENE 3.5 mph - -   Partly Cloudy
8:00 AM 37.4 °F 34.9 °F 33.8 °F 87% 30.33 in - ENE 3.5 mph - N/A   Clear
8:30 AM 37.4 °F - 33.8 °F 87% 30.33 in - ENE 2.3 mph - N/A   Clear
9:00 AM 39.2 °F 35.9 °F 33.8 °F 81% 30.36 in - ENE 4.6 mph - N/A   Clear
9:30 AM 41.0 °F 39.0 °F 35.6 °F 81% 30.36 in - ENE 3.5 mph - N/A   Clear
10:00 AM 44.6 °F 40.7 °F 35.6 °F 71% 30.36 in - East 6.9 mph - N/A   Clear
10:30 AM 46.4 °F 43.5 °F 37.4 °F 71% 30.36 in - East 5.8 mph - N/A   Clear
11:00 AM 48.2 °F - 35.6 °F 62% 30.33 in - ENE 4.6 mph - N/A   Clear
11:30 AM 50.0 °F - 37.4 °F 62% 30.33 in - SE 4.6 mph - N/A   Clear
12:00 PM 51.8 °F - 37.4 °F 58% 30.33 in - SSE 6.9 mph - N/A   Clear
12:30 PM 51.8 °F - 35.6 °F 54% 30.33 in - SE 5.8 mph - N/A   Clear
1:00 PM 53.6 °F - 35.6 °F 51% 30.33 in - SE 5.8 mph - N/A   Clear
1:30 PM 55.4 °F - 37.4 °F 51% 30.33 in - SE 5.8 mph - N/A   Clear
2:00 PM 55 °F - 37 °F 39% 30.33 in 16 mi SE 5.8 mph - -   Clear
2:00 PM 55.4 °F - 37.4 °F 51% 30.30 in - SE 5.8 mph - N/A   Clear
2:30 PM 55.4 °F - 35.6 °F 47% 30.30 in - SSE 5.8 mph - N/A   Clear
3:00 PM 57.2 °F - 37.4 °F 48% 30.30 in - SE 6.9 mph - N/A   Clear
3:30 PM 57.2 °F - 37.4 °F 48% 30.27 in - ESE 6.9 mph - N/A   Clear
4:00 PM 57.2 °F - 37.4 °F 48% 30.27 in - ESE 9.2 mph - N/A   Clear
4:30 PM 59.0 °F - 39.2 °F 48% 30.27 in - ESE 6.9 mph - N/A   Clear
5:00 PM 57.2 °F - 39.2 °F 51% 30.27 in - East 5.8 mph - N/A   Clear
5:30 PM 57.2 °F - 39.2 °F 51% 30.24 in - East 6.9 mph - N/A   Clear
6:00 PM 57.2 °F - 41.0 °F 55% 30.24 in - East 5.8 mph - N/A   Clear
6:30 PM 55.4 °F - 41.0 °F 58% 30.24 in - East 4.6 mph - N/A   Clear
7:00 PM 53.6 °F - 41.0 °F 62% 30.24 in - East 4.6 mph - N/A   Clear
7:30 PM 51.8 °F - 41.0 °F 67% 30.24 in - East 8.1 mph - N/A   Clear
8:00 PM 51 °F - 40 °F 57% 30.27 in 16 mi East 5.8 mph - -  
8:00 PM 50.0 °F - 39.2 °F 66% 30.24 in - East 5.8 mph - N/A   Clear
8:30 PM 50.0 °F - 41.0 °F 71% 30.24 in - East 5.8 mph - N/A   Clear
9:00 PM 48.2 °F - 39.2 °F 71% 30.24 in - East 4.6 mph - N/A   Clear
9:30 PM 46.4 °F - 39.2 °F 76% 30.24 in - East 2.3 mph - N/A   Clear
10:00 PM 46.4 °F 44.3 °F 39.2 °F 76% 30.24 in - East 4.6 mph - N/A   Clear
10:30 PM 46.4 °F - 41.0 °F 81% 30.24 in - SSE 2.3 mph - N/A   Clear
11:00 PM 42.8 °F - 39.2 °F 87% 30.24 in - Calm Calm - N/A   Clear
11:53 PM 41.0 °F - 39.2 °F 93% 30.24 in - Calm Calm - N/A   Clear